Location: Del Amo
(33.8464°N, 118.2104°W)
Time: 18:03:39
(UTC+00:00)

Vanguard 3 - Pass Details

Date: 17 September 2024
Orbit: 507 x 3224 km, 33.4° (Epoch: 05 October)

Event Time Altitude Azimuth Distance (km) Brightness Sun altitude
Rises 13:40:44 0° 239° (WSW) 6,273 11.1 -0.3°
Reaches altitude 10° 13:44:28 10° 237° (WSW) 5,521 10.9 0.5°
Maximum altitude 14:02:35 71° 157° (SSE) 3,339 10.5 4.3°
Drops below altitude 10° 14:21:09 10° 78° (ENE) 5,648 13.4 8.1°
Sets 14:25:00 0° 77° (ENE) 6,418 13.4 8.9°
